DLH400 EDDF-KJFK

Flight info

Callsign DLH400
Flight time N/A
Altitude 34000
Route OBOKA3M OBOKA Z29 TORNU DCT VICOT DCT GALSO Q63 KOPUL Q60 OKSAW DCT BIBPE DCT TIGWE/N0477F360 DCT ARPAK DCT FELCA DCT NICXI DCT OFSOX DCT SLANY DCT LUPOR DCT MALOT/M083F370 NATD ALLRY/N0472F380 N468A TUSKY DCT PLYMM PARCH4
Aircraft A346/H-SDE2E3FGHIJ3J4J5M1RWXY/LB1D1

Departure

Time 2026-04-16 10:14
Airport Frankfurt Main Airport (EDDF)

Arrival

Time N/A
Airport John F. Kennedy International Airport (KJFK)
Time Latitude Longitude Altitude Speed Heading
2026-04-16 09:34 50.04721 8.56277 372 ft 0 kts 339°
2026-04-16 10:00 50.04708 8.56285 370 ft 4 kts 336°
2026-04-16 10:00 50.04684 8.56304 376 ft 4 kts 327°
2026-04-16 10:01 50.04653 8.56358 376 ft 4 kts 282°
2026-04-16 10:01 50.04653 8.56381 377 ft 1 kts 250°
2026-04-16 10:01 50.04653 8.56382 377 ft 0 kts 249°
2026-04-16 10:05 50.04650 8.56367 372 ft 4 kts 249°
2026-04-16 10:05 50.04643 8.56343 374 ft 1 kts 248°
2026-04-16 10:05 50.04624 8.56260 372 ft 12 kts 250°
2026-04-16 10:05 50.04592 8.56127 375 ft 14 kts 250°
2026-04-16 10:06 50.04550 8.55989 374 ft 14 kts 227°
2026-04-16 10:06 50.04457 8.55928 373 ft 15 kts 190°
2026-04-16 10:06 50.04351 8.55925 375 ft 16 kts 164°
2026-04-16 10:06 50.04266 8.56018 373 ft 16 kts 97°
2026-04-16 10:07 50.04296 8.56182 376 ft 16 kts 69°
2026-04-16 10:07 50.04296 8.56269 376 ft 6 kts 148°
2026-04-16 10:07 50.04227 8.56304 376 ft 13 kts 163°
2026-04-16 10:07 50.04162 8.56386 374 ft 13 kts 98°
2026-04-16 10:08 50.04187 8.56529 372 ft 14 kts 70°
2026-04-16 10:08 50.04222 8.56678 375 ft 15 kts 70°
2026-04-16 10:08 50.04259 8.56833 373 ft 16 kts 69°
2026-04-16 10:08 50.04302 8.57009 375 ft 20 kts 70°
2026-04-16 10:09 50.04352 8.57219 372 ft 21 kts 70°
2026-04-16 10:09 50.04406 8.57445 375 ft 23 kts 70°
2026-04-16 10:09 50.04462 8.57685 375 ft 24 kts 70°
2026-04-16 10:09 50.04523 8.57935 373 ft 25 kts 69°
2026-04-16 10:10 50.04584 8.58194 376 ft 26 kts 69°
2026-04-16 10:10 50.04640 8.58428 373 ft 14 kts 69°
2026-04-16 10:10 50.04642 8.58544 377 ft 8 kts 128°
2026-04-16 10:10 50.04610 8.58575 374 ft 0 kts 159°
2026-04-16 10:11 50.04609 8.58576 374 ft 1 kts 159°
2026-04-16 10:12 50.04582 8.58593 377 ft 8 kts 158°
2026-04-16 10:12 50.04540 8.58619 379 ft 5 kts 159°
2026-04-16 10:12 50.04503 8.58625 380 ft 5 kts 206°
2026-04-16 10:12 50.04485 8.58583 381 ft 3 kts 250°
2026-04-16 10:13 50.04485 8.58582 376 ft 0 kts 250°
2026-04-16 10:13 50.04467 8.58504 378 ft 28 kts 249°
2026-04-16 10:13 50.04323 8.57906 373 ft 88 kts 249°
2026-04-16 10:13 50.04045 8.56749 372 ft 138 kts 250°
2026-04-16 10:14 50.03665 8.55145 367 ft 180 kts 248°
2026-04-16 10:14 50.03192 8.53167 666 ft 192 kts 250°
2026-04-16 10:14 50.02725 8.51328 1450 ft 179 kts 245°
2026-04-16 10:14 50.02007 8.49744 2055 ft 183 kts 216°
2026-04-16 10:15 50.00792 8.49084 2351 ft 197 kts 192°
2026-04-16 10:15 49.99401 8.48681 2753 ft 205 kts 194°
2026-04-16 10:15 49.98005 8.48133 3236 ft 208 kts 197°
2026-04-16 10:15 49.96600 8.47539 3773 ft 209 kts 197°
2026-04-16 10:16 49.95200 8.46928 4267 ft 211 kts 198°
2026-04-16 10:16 49.93760 8.46265 4648 ft 220 kts 198°
2026-04-16 10:16 49.92267 8.45523 4990 ft 232 kts 202°
2026-04-16 10:16 49.90894 8.44108 5235 ft 244 kts 232°
2026-04-16 10:17 49.90032 8.41837 5888 ft 243 kts 244°
2026-04-16 10:17 49.89275 8.39497 6623 ft 243 kts 244°
2026-04-16 10:17 49.88610 8.37024 7028 ft 255 kts 258°
2026-04-16 10:17 49.88503 8.34224 7424 ft 267 kts 276°
2026-04-16 10:18 49.88726 8.31378 8066 ft 271 kts 278°
2026-04-16 10:18 49.88986 8.28477 8808 ft 272 kts 279°
2026-04-16 10:18 49.89510 8.25656 9528 ft 273 kts 296°
2026-04-16 10:18 49.90528 8.23169 10234 ft 275 kts 307°
2026-04-16 10:19 49.91730 8.20783 10617 ft 289 kts 307°
2026-04-16 10:19 49.93020 8.18229 10737 ft 311 kts 307°
2026-04-16 10:19 49.94428 8.15544 10951 ft 329 kts 311°
2026-04-16 10:19 49.96153 8.13081 11285 ft 345 kts 319°
2026-04-16 10:20 49.98049 8.10634 11476 ft 362 kts 319°
2026-04-16 10:20 49.99997 8.08098 12084 ft 365 kts 318°
2026-04-16 10:20 50.01952 8.05575 12819 ft 368 kts 318°
2026-04-16 10:20 50.03919 8.02989 13478 ft 371 kts 317°
2026-04-16 10:21 50.05878 8.00329 14155 ft 374 kts 316°
2026-04-16 10:21 50.07828 7.97618 14754 ft 377 kts 316°
2026-04-16 10:21 50.09818 7.94917 15322 ft 381 kts 317°
2026-04-16 10:21 50.11840 7.92209 15892 ft 385 kts 317°
2026-04-16 10:22 50.13878 7.89472 16445 ft 388 kts 317°
2026-04-16 10:22 50.15935 7.86705 17044 ft 391 kts 317°
2026-04-16 10:22 50.18002 7.83917 17653 ft 394 kts 317°
2026-04-16 10:22 50.20078 7.81112 18256 ft 396 kts 316°
2026-04-16 10:23 50.22176 7.78273 18791 ft 399 kts 316°
2026-04-16 10:23 50.24363 7.75565 19291 ft 403 kts 322°
2026-04-16 10:23 50.26737 7.73189 19828 ft 407 kts 327°
2026-04-16 10:23 50.29279 7.71172 20350 ft 410 kts 332°
2026-04-16 10:24 50.31899 7.69348 20880 ft 413 kts 333°
2026-04-16 10:24 50.34539 7.67562 21396 ft 415 kts 333°
2026-04-16 10:24 50.37192 7.65764 21929 ft 416 kts 333°
2026-04-16 10:24 50.39819 7.63969 22440 ft 418 kts 332°
2026-04-16 10:25 50.42493 7.62136 22938 ft 420 kts 332°
2026-04-16 10:25 50.45175 7.60290 23435 ft 422 kts 332°
2026-04-16 10:25 50.47880 7.58426 23904 ft 424 kts 332°
2026-04-16 10:25 50.50587 7.56556 24305 ft 426 kts 332°
2026-04-16 10:26 50.53291 7.54626 24705 ft 427 kts 330°
2026-04-16 10:26 50.55051 7.53233 24972 ft 427 kts 328°
2026-04-16 10:26 50.57644 7.50956 25382 ft 427 kts 326°
2026-04-16 10:26 50.60170 7.48480 25778 ft 428 kts 324°
2026-04-16 10:27 50.62680 7.45930 26164 ft 430 kts 323°
2026-04-16 10:27 50.65194 7.43353 26550 ft 432 kts 323°
2026-04-16 10:27 50.67720 7.40755 26939 ft 434 kts 323°
2026-04-16 10:27 50.70252 7.38147 27307 ft 435 kts 322°
2026-04-16 10:28 50.72630 7.35201 27634 ft 433 kts 314°
2026-04-16 10:28 50.74677 7.31723 27993 ft 432 kts 306°
2026-04-16 10:28 50.76373 7.27808 28349 ft 432 kts 298°
2026-04-16 10:28 50.77734 7.23578 28718 ft 432 kts 293°
2026-04-16 10:29 50.78888 7.19190 29229 ft 430 kts 291°
2026-04-16 10:29 50.79983 7.14800 29808 ft 427 kts 291°
2026-04-16 10:29 50.81056 7.10485 30356 ft 425 kts 291°
2026-04-16 10:29 50.82145 7.06134 30792 ft 423 kts 291°
2026-04-16 10:30 50.83233 7.01825 31238 ft 421 kts 291°
2026-04-16 10:30 50.84316 6.97544 31707 ft 418 kts 291°
2026-04-16 10:30 50.85393 6.93281 32161 ft 415 kts 291°
2026-04-16 10:30 50.86468 6.89028 32603 ft 413 kts 291°
2026-04-16 10:31 50.87536 6.84801 32972 ft 413 kts 291°
2026-04-16 10:31 50.88607 6.80565 33294 ft 414 kts 291°
2026-04-16 10:31 50.89682 6.76305 33588 ft 414 kts 291°
2026-04-16 10:31 50.90738 6.72115 33892 ft 415 kts 291°
2026-04-16 10:32 50.91824 6.67801 34188 ft 415 kts 291°
2026-04-16 10:32 50.92882 6.63591 34220 ft 416 kts 291°
2026-04-16 10:32 50.95022 6.55060 34207 ft 416 kts 291°
2026-04-16 10:33 50.97157 6.46505 34211 ft 416 kts 290°
2026-04-16 10:33 50.99284 6.37952 34211 ft 416 kts 290°
2026-04-16 10:34 51.01406 6.29386 34211 ft 416 kts 290°
2026-04-16 10:34 51.03521 6.20816 34211 ft 416 kts 290°
2026-04-16 10:35 51.05615 6.12302 34213 ft 416 kts 290°
2026-04-16 10:35 51.07716 6.03723 34209 ft 415 kts 290°
2026-04-16 10:36 51.09807 5.95149 34212 ft 415 kts 290°
2026-04-16 10:36 51.11897 5.86550 34208 ft 415 kts 290°
2026-04-16 10:37 51.13975 5.77961 34218 ft 415 kts 290°
2026-04-16 10:37 51.16040 5.69398 34220 ft 415 kts 290°
2026-04-16 10:38 51.18110 5.60784 34209 ft 415 kts 290°
2026-04-16 10:38 51.20170 5.52168 34211 ft 415 kts 289°
2026-04-16 10:39 51.22221 5.43565 34221 ft 414 kts 289°
2026-04-16 10:39 51.24268 5.34935 34215 ft 414 kts 289°
2026-04-16 10:40 51.26304 5.26318 34206 ft 414 kts 289°
2026-04-16 10:40 51.28324 5.17740 34209 ft 414 kts 289°
2026-04-16 10:41 51.30348 5.09107 34213 ft 414 kts 289°
2026-04-16 10:41 51.32367 5.00460 34214 ft 414 kts 289°
2026-04-16 10:42 51.34309 4.92109 34212 ft 414 kts 289°
2026-04-16 10:42 51.36316 4.83446 34212 ft 414 kts 289°
2026-04-16 10:43 51.38313 4.74784 34212 ft 413 kts 289°
2026-04-16 10:43 51.40293 4.66166 34216 ft 412 kts 289°
2026-04-16 10:44 51.42270 4.57536 34219 ft 411 kts 289°
2026-04-16 10:44 51.44236 4.48913 34211 ft 411 kts 289°
2026-04-16 10:45 51.46184 4.40333 34203 ft 411 kts 289°
2026-04-16 10:45 51.48140 4.31682 34213 ft 412 kts 289°
2026-04-16 10:46 51.50093 4.23014 34243 ft 411 kts 289°
2026-04-16 10:46 51.52023 4.14418 34214 ft 411 kts 288°
2026-04-16 10:47 51.53954 4.05768 34206 ft 411 kts 288°
2026-04-16 10:47 51.55879 3.97107 34201 ft 411 kts 288°
2026-04-16 10:48 51.57798 3.88442 34201 ft 411 kts 288°
2026-04-16 10:48 51.59710 3.79772 34193 ft 409 kts 288°
2026-04-16 10:49 51.61609 3.71131 34194 ft 409 kts 288°
2026-04-16 10:49 51.63503 3.62474 34193 ft 409 kts 288°
2026-04-16 10:50 51.65379 3.53868 34194 ft 409 kts 288°
2026-04-16 10:50 51.67258 3.45209 34185 ft 409 kts 288°
2026-04-16 10:51 51.69130 3.36540 34188 ft 408 kts 288°
2026-04-16 10:51 51.70798 3.27802 34192 ft 407 kts 283°
2026-04-16 10:52 51.71795 3.18820 34188 ft 407 kts 277°
2026-04-16 10:52 51.72113 3.09685 34198 ft 408 kts 271°
2026-04-16 10:53 51.71734 3.00519 34198 ft 410 kts 265°
2026-04-16 10:53 51.70976 2.91410 34198 ft 410 kts 265°
2026-04-16 10:54 51.70195 2.82290 34197 ft 408 kts 265°
2026-04-16 10:54 51.69410 2.73279 34197 ft 408 kts 265°
2026-04-16 10:55 51.68608 2.64212 34192 ft 408 kts 265°
2026-04-16 10:55 51.67797 2.55128 34196 ft 408 kts 265°
2026-04-16 10:56 51.66979 2.46064 34193 ft 408 kts 265°
2026-04-16 10:56 51.66155 2.37011 34195 ft 406 kts 264°
2026-04-16 10:57 51.65327 2.27998 34182 ft 405 kts 264°
2026-04-16 10:57 51.64501 2.19078 34185 ft 405 kts 264°
2026-04-16 10:58 51.63661 2.10096 34184 ft 405 kts 264°
2026-04-16 10:58 51.62815 2.01107 34184 ft 405 kts 264°
2026-04-16 10:59 51.61963 1.92142 34188 ft 405 kts 264°
2026-04-16 10:59 51.61107 1.83211 34182 ft 402 kts 264°
2026-04-16 11:00 51.60246 1.74301 34180 ft 402 kts 264°
2026-04-16 11:00 51.59379 1.65400 34180 ft 402 kts 264°
2026-04-16 11:01 51.58512 1.56560 34181 ft 402 kts 264°
2026-04-16 11:01 51.57632 1.47665 34168 ft 402 kts 264°
2026-04-16 11:02 51.56748 1.38783 34167 ft 400 kts 264°
2026-04-16 11:02 51.55857 1.29951 34156 ft 399 kts 264°
2026-04-16 11:03 51.55079 1.21107 34162 ft 398 kts 267°
2026-04-16 11:04 51.54774 1.07787 34152 ft 396 kts 273°
2026-04-16 11:04 51.55157 0.98954 34154 ft 396 kts 276°
2026-04-16 11:05 51.55697 0.90203 34158 ft 394 kts 276°
2026-04-16 11:05 51.56239 0.81414 34155 ft 394 kts 276°
2026-04-16 11:06 51.56780 0.72634 34153 ft 394 kts 276°
2026-04-16 11:06 51.57317 0.63846 34181 ft 394 kts 276°
2026-04-16 11:07 51.57849 0.55071 34159 ft 393 kts 276°
2026-04-16 11:07 51.58374 0.46306 34154 ft 393 kts 275°
2026-04-16 11:08 51.58890 0.37618 34148 ft 392 kts 275°
2026-04-16 11:08 51.59400 0.28876 34143 ft 392 kts 275°
2026-04-16 11:09 51.59905 0.20125 34146 ft 392 kts 275°
2026-04-16 11:09 51.60402 0.11379 34156 ft 392 kts 275°
2026-04-16 11:10 51.60894 0.02631 34157 ft 392 kts 275°
2026-04-16 11:10 51.61381 -0.06110 34092 ft 392 kts 274°
2026-04-16 11:11 51.61865 -0.14802 34078 ft 392 kts 275°
2026-04-16 11:11 51.62408 -0.23600 34080 ft 392 kts 275°
2026-04-16 11:12 51.62942 -0.32283 34075 ft 392 kts 275°
2026-04-16 11:12 51.63470 -0.41020 34156 ft 392 kts 275°
2026-04-16 11:13 51.63992 -0.49782 34157 ft 392 kts 275°
2026-04-16 11:13 51.64420 -0.57056 34152 ft 392 kts 275°
2026-04-16 11:14 51.64929 -0.65799 34134 ft 392 kts 275°
2026-04-16 11:14 51.65431 -0.74546 34132 ft 392 kts 275°
2026-04-16 11:15 51.65928 -0.83308 34136 ft 391 kts 275°
2026-04-16 11:15 51.66417 -0.92064 34127 ft 392 kts 274°
2026-04-16 11:16 51.66902 -1.00805 34131 ft 392 kts 274°
2026-04-16 11:16 51.67375 -1.09507 34138 ft 392 kts 274°
2026-04-16 11:17 51.67844 -1.18273 34127 ft 392 kts 274°
2026-04-16 11:17 51.68308 -1.27043 34129 ft 392 kts 274°
2026-04-16 11:18 51.68765 -1.35813 34126 ft 392 kts 274°
2026-04-16 11:18 51.69217 -1.44588 34133 ft 392 kts 274°
2026-04-16 11:19 51.69664 -1.53367 34138 ft 392 kts 273°
2026-04-16 11:19 51.70099 -1.62146 34128 ft 392 kts 273°
2026-04-16 11:20 51.70590 -1.70868 34131 ft 393 kts 275°
2026-04-16 11:20 51.71222 -1.79630 34141 ft 393 kts 275°
2026-04-16 11:21 51.71853 -1.88405 34118 ft 393 kts 275°
2026-04-16 11:21 51.72478 -1.97183 34119 ft 393 kts 275°
2026-04-16 11:22 51.73096 -2.05963 34123 ft 394 kts 274°
2026-04-16 11:22 51.73704 -2.14709 34130 ft 394 kts 274°
2026-04-16 11:23 51.74311 -2.23527 34130 ft 394 kts 274°
2026-04-16 11:23 51.74912 -2.32344 34122 ft 394 kts 274°
2026-04-16 11:24 51.75506 -2.41162 34120 ft 394 kts 274°
2026-04-16 11:24 51.76098 -2.49987 34126 ft 396 kts 274°
2026-04-16 11:25 51.76680 -2.58837 34111 ft 396 kts 274°
2026-04-16 11:25 51.77256 -2.67690 34103 ft 396 kts 274°
2026-04-16 11:26 51.77826 -2.76552 34139 ft 395 kts 273°
2026-04-16 11:26 51.78383 -2.85298 34051 ft 393 kts 273°
2026-04-16 11:27 51.78941 -2.94156 34056 ft 393 kts 273°
2026-04-16 11:27 51.79485 -3.02908 34045 ft 393 kts 273°
2026-04-16 11:28 51.80025 -3.11744 34055 ft 394 kts 273°
2026-04-16 11:28 51.80558 -3.20562 34064 ft 393 kts 272°
2026-04-16 11:29 51.81085 -3.29383 34082 ft 393 kts 272°
2026-04-16 11:29 51.81603 -3.38142 34089 ft 393 kts 272°
2026-04-16 11:30 51.82119 -3.46970 34104 ft 395 kts 272°
2026-04-16 11:30 51.82828 -3.55817 34111 ft 397 kts 276°
2026-04-16 11:31 51.83918 -3.64604 34112 ft 398 kts 277°
2026-04-16 11:31 51.85044 -3.73383 34105 ft 398 kts 277°
2026-04-16 11:32 51.86170 -3.82178 34106 ft 398 kts 277°
2026-04-16 11:32 51.87292 -3.90968 34113 ft 398 kts 277°
2026-04-16 11:33 51.88414 -3.99787 34109 ft 399 kts 277°
2026-04-16 11:33 51.89518 -4.08555 34107 ft 400 kts 277°
2026-04-16 11:34 51.90625 -4.17398 34102 ft 400 kts 277°
2026-04-16 11:34 51.91725 -4.26230 34103 ft 400 kts 277°
2026-04-16 11:35 51.92820 -4.35082 34091 ft 400 kts 276°
2026-04-16 11:35 51.93911 -4.43935 34096 ft 400 kts 276°
2026-04-16 11:36 51.94992 -4.52795 34095 ft 401 kts 276°
2026-04-16 11:36 51.96070 -4.61684 34122 ft 400 kts 276°
2026-04-16 11:37 51.97140 -4.70563 34094 ft 400 kts 276°
2026-04-16 11:37 51.98195 -4.79380 34093 ft 400 kts 276°
2026-04-16 11:38 51.99252 -4.88268 34086 ft 400 kts 276°
2026-04-16 11:38 52.00305 -4.97163 34089 ft 401 kts 275°
2026-04-16 11:39 52.01349 -5.06091 34081 ft 402 kts 275°
2026-04-16 11:39 52.02406 -5.15018 34084 ft 403 kts 276°
2026-04-16 11:40 52.03821 -5.23875 34087 ft 406 kts 281°
2026-04-16 11:40 52.05564 -5.32635 34082 ft 407 kts 282°
2026-04-16 11:41 52.07316 -5.41352 34081 ft 407 kts 282°
2026-04-16 11:41 52.09073 -5.50112 34079 ft 407 kts 282°
2026-04-16 11:42 52.10827 -5.58883 34072 ft 407 kts 281°
2026-04-16 11:42 52.12575 -5.67663 34074 ft 407 kts 281°
2026-04-16 11:43 52.14314 -5.76446 34071 ft 407 kts 281°
2026-04-16 11:43 52.15866 -5.85276 34074 ft 407 kts 278°
2026-04-16 11:44 52.16994 -5.94303 34072 ft 406 kts 275°
2026-04-16 11:44 52.18048 -6.03379 34061 ft 407 kts 275°
2026-04-16 11:45 52.19093 -6.12479 34055 ft 408 kts 275°
2026-04-16 11:45 52.20129 -6.21579 34055 ft 407 kts 275°
2026-04-16 11:46 52.21158 -6.30686 34056 ft 407 kts 275°
2026-04-16 11:46 52.22178 -6.39792 34045 ft 407 kts 275°
2026-04-16 11:47 52.23188 -6.48858 34042 ft 409 kts 275°
2026-04-16 11:47 52.24199 -6.58027 34040 ft 410 kts 275°
2026-04-16 11:48 52.25204 -6.67201 34043 ft 410 kts 275°
2026-04-16 11:48 52.26203 -6.76379 34041 ft 410 kts 274°
2026-04-16 11:49 52.27194 -6.85567 34040 ft 410 kts 274°
2026-04-16 11:49 52.28172 -6.94692 34058 ft 410 kts 274°
2026-04-16 11:50 52.29152 -7.03898 34045 ft 411 kts 274°
2026-04-16 11:50 52.30124 -7.13127 34050 ft 411 kts 274°
2026-04-16 11:51 52.31088 -7.22356 34070 ft 410 kts 274°
2026-04-16 11:51 52.32043 -7.31549 34037 ft 409 kts 274°
2026-04-16 11:52 52.32988 -7.40719 34029 ft 409 kts 274°
2026-04-16 11:52 52.33924 -7.49855 34023 ft 409 kts 274°
2026-04-16 11:53 52.34854 -7.59046 34001 ft 409 kts 274°
2026-04-16 11:53 52.35779 -7.68249 33997 ft 409 kts 274°
2026-04-16 11:54 52.36695 -7.77444 33994 ft 409 kts 274°
2026-04-16 11:54 52.37607 -7.86661 33993 ft 409 kts 273°
2026-04-16 11:55 52.38512 -7.95889 33999 ft 409 kts 273°
2026-04-16 11:55 52.39408 -8.05068 33991 ft 411 kts 273°
2026-04-16 11:56 52.40301 -8.14336 33971 ft 411 kts 273°
2026-04-16 11:56 52.41186 -8.23610 33976 ft 411 kts 273°
2026-04-16 11:57 52.42066 -8.32893 33974 ft 411 kts 272°
2026-04-16 11:57 52.42940 -8.42190 33964 ft 411 kts 272°
2026-04-16 11:58 52.43802 -8.51429 33979 ft 413 kts 272°
2026-04-16 11:58 52.44665 -8.60778 33957 ft 415 kts 272°
2026-04-16 11:59 52.45522 -8.70153 33957 ft 416 kts 272°
2026-04-16 11:59 52.46375 -8.79559 33943 ft 416 kts 272°
2026-04-16 12:00 52.47222 -8.88968 33941 ft 416 kts 272°
2026-04-16 12:00 52.48060 -8.98382 33943 ft 416 kts 272°
2026-04-16 12:01 52.48889 -9.07765 33942 ft 419 kts 272°
2026-04-16 12:01 52.49718 -9.17263 33936 ft 420 kts 272°
2026-04-16 12:02 52.50812 -9.29911 33927 ft 419 kts 272°
2026-04-16 12:02 52.51624 -9.39410 33924 ft 419 kts 272°
2026-04-16 12:03 52.52560 -9.50459 33929 ft 419 kts 272°
2026-04-16 12:03 52.53228 -9.58443 33927 ft 422 kts 271°
2026-04-16 12:04 52.54018 -9.67979 33917 ft 423 kts 272°
2026-04-16 12:04 52.55003 -9.77556 33917 ft 425 kts 274°
2026-04-16 12:05 52.56043 -9.87134 33910 ft 425 kts 274°
2026-04-16 12:05 52.57077 -9.96722 33909 ft 425 kts 274°
2026-04-16 12:06 52.58104 -10.06322 33954 ft 426 kts 274°
2026-04-16 12:06 52.59124 -10.15954 33906 ft 427 kts 274°
2026-04-16 12:07 52.60135 -10.25544 33900 ft 427 kts 274°
2026-04-16 12:07 52.61143 -10.35188 33896 ft 427 kts 274°
2026-04-16 12:08 52.62143 -10.44840 33895 ft 427 kts 274°
2026-04-16 12:08 52.63135 -10.54496 33886 ft 427 kts 274°
2026-04-16 12:09 52.64120 -10.64166 33886 ft 427 kts 273°
2026-04-16 12:09 52.65095 -10.73824 33875 ft 427 kts 273°
2026-04-16 12:10 52.66064 -10.83500 33869 ft 427 kts 273°
2026-04-16 12:10 52.67023 -10.93164 33861 ft 427 kts 273°
2026-04-16 12:11 52.67969 -11.02767 33863 ft 427 kts 273°
2026-04-16 12:11 52.68916 -11.12474 33867 ft 427 kts 273°
2026-04-16 12:12 52.69853 -11.22174 33852 ft 428 kts 273°
2026-04-16 12:12 52.70784 -11.31888 33841 ft 428 kts 273°
2026-04-16 12:13 52.71707 -11.41620 33851 ft 429 kts 273°
2026-04-16 12:13 52.72621 -11.51327 33840 ft 430 kts 273°
2026-04-16 12:14 52.73533 -11.61100 33839 ft 430 kts 273°
2026-04-16 12:14 52.74439 -11.70896 33831 ft 432 kts 272°
2026-04-16 12:15 52.75337 -11.80709 33818 ft 432 kts 272°
2026-04-16 12:15 52.76229 -11.90542 33804 ft 432 kts 272°
2026-04-16 12:16 52.77107 -12.00312 33799 ft 432 kts 272°
2026-04-16 12:16 52.77982 -12.10149 33798 ft 432 kts 272°
2026-04-16 12:17 52.78849 -12.19991 33805 ft 432 kts 272°
2026-04-16 12:17 52.79710 -12.29878 33958 ft 436 kts 272°
2026-04-16 12:18 52.80139 -12.34838 34353 ft 433 kts 272°
2026-04-16 12:18 52.80564 -12.39770 34698 ft 432 kts 272°
2026-04-16 12:18 52.80986 -12.44698 34964 ft 433 kts 272°
2026-04-16 12:18 52.81408 -12.49652 35196 ft 434 kts 272°
2026-04-16 12:19 52.81823 -12.54542 35418 ft 435 kts 272°
2026-04-16 12:19 52.82241 -12.59496 35625 ft 435 kts 273°
2026-04-16 12:19 52.82659 -12.64470 35746 ft 436 kts 273°
2026-04-16 12:19 52.83076 -12.69451 35748 ft 437 kts 273°
2026-04-16 12:20 52.83907 -12.79462 35766 ft 439 kts 272°
2026-04-16 12:20 52.84731 -12.89492 35742 ft 439 kts 272°
2026-04-16 12:21 52.85546 -12.99524 35741 ft 439 kts 272°
2026-04-16 12:21 52.86352 -13.09567 35733 ft 439 kts 272°
2026-04-16 12:22 52.87149 -13.19598 35730 ft 439 kts 272°
2026-04-16 12:22 52.87933 -13.29585 35730 ft 440 kts 272°
2026-04-16 12:23 52.88716 -13.39666 35720 ft 441 kts 272°
2026-04-16 12:23 52.89491 -13.49748 35704 ft 440 kts 272°
2026-04-16 12:24 52.90257 -13.59834 35706 ft 440 kts 272°
2026-04-16 12:24 52.91014 -13.69925 35694 ft 440 kts 272°
2026-04-16 12:25 52.91758 -13.79951 35719 ft 441 kts 272°
2026-04-16 12:25 52.92500 -13.90076 35705 ft 442 kts 272°
2026-04-16 12:26 52.93234 -14.00218 35687 ft 442 kts 272°
2026-04-16 12:26 52.93960 -14.10352 35674 ft 442 kts 272°
2026-04-16 12:27 52.94678 -14.20503 35672 ft 442 kts 271°
2026-04-16 12:27 52.95386 -14.30649 35674 ft 442 kts 271°
2026-04-16 12:28 52.96088 -14.40834 35664 ft 444 kts 271°
2026-04-16 12:28 52.96779 -14.50979 35649 ft 445 kts 271°
2026-04-16 12:29 52.97467 -14.61204 35633 ft 445 kts 271°
2026-04-16 12:29 52.98146 -14.71425 35639 ft 445 kts 271°
2026-04-16 12:30 52.98814 -14.81643 35624 ft 445 kts 271°
2026-04-16 12:30 52.99552 -14.91862 35639 ft 448 kts 274°
2026-04-16 12:31 53.00815 -15.02059 35611 ft 453 kts 279°
2026-04-16 12:31 53.02678 -15.12047 35613 ft 457 kts 284°
2026-04-16 12:32 53.04886 -15.21972 35609 ft 457 kts 285°
2026-04-16 12:32 53.07111 -15.31915 35597 ft 458 kts 285°
2026-04-16 12:33 53.09324 -15.41861 35595 ft 457 kts 285°
2026-04-16 12:33 53.11512 -15.51763 35601 ft 459 kts 285°
2026-04-16 12:34 53.13715 -15.61770 35583 ft 459 kts 285°
2026-04-16 12:34 53.15907 -15.71778 35582 ft 459 kts 284°
2026-04-16 12:35 53.18095 -15.81816 35583 ft 459 kts 284°
2026-04-16 12:35 53.20272 -15.91859 35578 ft 459 kts 284°
2026-04-16 12:36 53.22438 -16.01900 35569 ft 459 kts 284°
2026-04-16 12:36 53.24598 -16.11958 35567 ft 459 kts 284°
2026-04-16 12:37 53.26750 -16.22027 35555 ft 459 kts 284°
2026-04-16 12:37 53.28891 -16.32101 35555 ft 459 kts 284°
2026-04-16 12:38 53.31013 -16.42129 35551 ft 459 kts 284°
2026-04-16 12:38 53.33135 -16.52210 35541 ft 459 kts 284°
2026-04-16 12:39 53.35252 -16.62327 35560 ft 459 kts 284°
2026-04-16 12:39 53.37359 -16.72445 35544 ft 460 kts 284°
2026-04-16 12:40 53.39467 -16.82608 35535 ft 461 kts 284°
2026-04-16 12:40 53.41566 -16.92779 35532 ft 461 kts 284°
2026-04-16 12:41 53.43642 -17.02890 35523 ft 461 kts 284°
2026-04-16 12:41 53.45722 -17.13079 35524 ft 461 kts 284°
2026-04-16 12:42 53.47793 -17.23273 35522 ft 461 kts 284°
2026-04-16 12:42 53.49856 -17.33488 35537 ft 462 kts 284°
2026-04-16 12:43 53.51918 -17.43749 35517 ft 462 kts 284°
2026-04-16 12:43 53.53958 -17.53940 35512 ft 462 kts 284°
2026-04-16 12:44 53.56001 -17.64210 35505 ft 462 kts 284°
2026-04-16 12:44 53.58036 -17.74490 35500 ft 462 kts 284°
2026-04-16 12:45 53.60063 -17.84791 35500 ft 462 kts 284°
2026-04-16 12:45 53.62081 -17.95100 35506 ft 463 kts 284°
2026-04-16 12:46 53.64095 -18.05445 35524 ft 464 kts 284°
2026-04-16 12:46 53.66101 -18.15803 35503 ft 463 kts 284°
2026-04-16 12:47 53.68096 -18.26153 35494 ft 463 kts 283°
2026-04-16 12:47 53.70072 -18.36458 35491 ft 463 kts 283°
2026-04-16 12:48 53.72049 -18.46833 35486 ft 463 kts 283°
2026-04-16 12:48 53.74017 -18.57217 35488 ft 464 kts 283°
2026-04-16 12:49 53.75978 -18.67625 35483 ft 464 kts 283°
2026-04-16 12:49 53.77934 -18.78055 35483 ft 464 kts 283°
2026-04-16 12:50 53.79867 -18.88430 35499 ft 464 kts 283°
2026-04-16 12:50 53.81804 -18.98877 35493 ft 464 kts 283°
2026-04-16 12:51 53.83732 -19.09336 35492 ft 464 kts 283°
2026-04-16 12:51 53.85649 -19.19794 35515 ft 464 kts 283°
2026-04-16 12:52 53.87559 -19.30276 35506 ft 465 kts 283°
2026-04-16 12:52 53.89466 -19.40796 35506 ft 465 kts 283°
2026-04-16 12:53 53.91363 -19.51318 35508 ft 465 kts 283°
2026-04-16 12:53 53.92930 -19.60065 35517 ft 465 kts 283°
2026-04-16 12:54 53.94808 -19.70596 35519 ft 465 kts 283°
2026-04-16 12:54 53.96679 -19.81146 35517 ft 465 kts 283°
2026-04-16 12:55 53.98498 -19.91654 35519 ft 466 kts 281°
2026-04-16 12:55 53.99834 -20.02410 35520 ft 463 kts 275°
2026-04-16 12:56 54.00520 -20.13277 35526 ft 461 kts 270°
2026-04-16 12:56 54.00957 -20.24176 35525 ft 461 kts 270°
2026-04-16 12:57 54.01379 -20.35062 35525 ft 461 kts 270°
2026-04-16 12:57 54.01792 -20.45948 35538 ft 461 kts 270°
2026-04-16 12:58 54.02194 -20.56798 35541 ft 462 kts 270°
2026-04-16 12:58 54.02593 -20.67730 35530 ft 462 kts 270°
2026-04-16 12:59 54.02982 -20.78662 35530 ft 462 kts 270°
2026-04-16 13:00 54.03546 -20.95056 35533 ft 462 kts 270°
2026-04-16 13:00 54.03909 -21.05994 35550 ft 463 kts 270°
2026-04-16 13:01 54.04263 -21.16960 35539 ft 463 kts 270°
2026-04-16 13:01 54.04607 -21.27930 35536 ft 464 kts 270°
2026-04-16 13:02 54.04941 -21.38850 35542 ft 464 kts 270°
2026-04-16 13:02 54.05265 -21.49832 35547 ft 464 kts 270°
2026-04-16 13:03 54.05579 -21.60808 35556 ft 464 kts 270°
2026-04-16 13:03 54.05884 -21.71810 35546 ft 465 kts 270°
2026-04-16 13:04 54.06180 -21.82834 35551 ft 465 kts 270°
2026-04-16 13:04 54.06466 -21.93853 35550 ft 465 kts 270°
2026-04-16 13:05 54.06739 -22.04788 35551 ft 465 kts 269°
2026-04-16 13:05 54.07004 -22.15811 35552 ft 465 kts 269°
2026-04-16 13:06 54.07260 -22.26828 35553 ft 465 kts 269°
2026-04-16 13:06 54.07504 -22.37835 35550 ft 465 kts 269°
2026-04-16 13:07 54.07740 -22.48866 35552 ft 465 kts 269°
2026-04-16 13:07 54.07964 -22.59872 35551 ft 465 kts 269°
2026-04-16 13:08 54.08179 -22.70903 35550 ft 465 kts 269°
2026-04-16 13:08 54.08382 -22.81929 35562 ft 466 kts 269°
2026-04-16 13:09 54.08577 -22.92909 35558 ft 466 kts 269°
2026-04-16 13:09 54.08763 -23.03969 35567 ft 466 kts 269°
2026-04-16 13:10 54.08938 -23.15021 35560 ft 466 kts 269°
2026-04-16 13:10 54.09103 -23.26077 35558 ft 466 kts 269°
2026-04-16 13:11 54.09256 -23.37136 35565 ft 466 kts 269°
2026-04-16 13:11 54.09400 -23.48210 35562 ft 467 kts 269°
2026-04-16 13:12 54.09535 -23.59221 35562 ft 467 kts 269°
2026-04-16 13:12 54.09660 -23.70306 35561 ft 467 kts 269°
2026-04-16 13:13 54.09775 -23.81392 35563 ft 467 kts 268°
2026-04-16 13:13 54.09879 -23.92491 35563 ft 467 kts 269°
2026-04-16 13:14 54.09972 -24.03517 35558 ft 468 kts 268°
2026-04-16 13:14 54.10056 -24.14633 35558 ft 468 kts 268°
2026-04-16 13:15 54.10130 -24.25755 35578 ft 468 kts 268°
2026-04-16 13:15 54.10193 -24.36855 35564 ft 468 kts 268°
2026-04-16 13:16 54.10247 -24.47965 35562 ft 468 kts 268°
2026-04-16 13:16 54.10288 -24.59078 35564 ft 468 kts 268°
2026-04-16 13:17 54.10322 -24.70193 35566 ft 468 kts 268°
2026-04-16 13:17 54.10346 -24.81313 35565 ft 468 kts 268°
2026-04-16 13:18 54.10358 -24.92427 35565 ft 468 kts 268°
2026-04-16 13:18 54.10361 -25.03538 35564 ft 468 kts 268°
2026-04-16 13:19 54.10351 -25.14574 35573 ft 468 kts 268°
2026-04-16 13:19 54.10333 -25.25694 35569 ft 468 kts 268°
2026-04-16 13:20 54.10305 -25.36816 35570 ft 468 kts 268°
2026-04-16 13:20 54.10267 -25.47937 35571 ft 468 kts 268°
2026-04-16 13:21 54.10218 -25.59046 35581 ft 468 kts 268°
2026-04-16 13:21 54.10157 -25.70171 35582 ft 468 kts 268°
2026-04-16 13:22 54.10089 -25.81186 35582 ft 467 kts 268°
2026-04-16 13:22 54.10010 -25.92296 35582 ft 467 kts 268°
2026-04-16 13:23 54.09921 -26.03373 35590 ft 467 kts 268°
2026-04-16 13:23 54.09821 -26.14462 35591 ft 467 kts 267°
2026-04-16 13:24 54.09711 -26.25561 35601 ft 467 kts 267°
2026-04-16 13:24 54.09593 -26.36590 35604 ft 464 kts 267°
2026-04-16 13:25 54.09468 -26.47574 35607 ft 462 kts 267°
2026-04-16 13:25 54.09328 -26.58565 35617 ft 464 kts 267°
2026-04-16 13:26 54.09181 -26.69473 35615 ft 462 kts 267°
2026-04-16 13:26 54.09022 -26.80451 35626 ft 463 kts 267°
2026-04-16 13:27 54.08852 -26.91417 35625 ft 461 kts 266°
2026-04-16 13:27 54.08673 -27.02384 35637 ft 462 kts 267°
2026-04-16 13:28 54.08486 -27.13325 35636 ft 461 kts 266°
2026-04-16 13:28 54.08286 -27.24286 35647 ft 462 kts 266°
2026-04-16 13:29 54.08080 -27.35185 35647 ft 461 kts 266°
2026-04-16 13:29 54.07859 -27.46134 35661 ft 462 kts 266°
2026-04-16 13:30 54.07633 -27.57058 35660 ft 460 kts 266°
2026-04-16 13:30 54.07395 -27.67989 35662 ft 461 kts 266°
2026-04-16 13:31 54.07149 -27.78896 35659 ft 459 kts 266°
2026-04-16 13:31 54.06892 -27.89751 35669 ft 461 kts 266°
2026-04-16 13:32 54.06625 -28.00674 35690 ft 460 kts 266°
2026-04-16 13:32 54.06348 -28.11597 35681 ft 461 kts 266°
2026-04-16 13:33 54.06061 -28.22497 35682 ft 461 kts 266°
2026-04-16 13:33 54.05764 -28.33428 35697 ft 460 kts 265°
2026-04-16 13:34 54.05459 -28.44245 35691 ft 461 kts 266°
2026-04-16 13:34 54.05143 -28.55168 35693 ft 460 kts 265°
2026-04-16 13:35 54.04815 -28.66056 35706 ft 460 kts 266°
2026-04-16 13:35 54.04482 -28.76957 35708 ft 458 kts 265°
2026-04-16 13:36 54.04137 -28.87760 35719 ft 460 kts 265°
2026-04-16 13:36 54.03785 -28.98618 35716 ft 457 kts 265°
2026-04-16 13:37 54.03418 -29.09465 35732 ft 460 kts 265°
2026-04-16 13:37 54.03045 -29.20312 35731 ft 458 kts 265°
2026-04-16 13:38 54.02661 -29.31173 35748 ft 459 kts 265°
2026-04-16 13:38 54.02269 -29.42009 35741 ft 458 kts 265°
2026-04-16 13:39 54.01865 -29.52865 35758 ft 459 kts 265°
2026-04-16 13:39 54.01453 -29.63695 35754 ft 458 kts 265°
2026-04-16 13:40 54.01028 -29.74550 35766 ft 459 kts 265°
2026-04-16 13:40 54.00596 -29.85384 35763 ft 458 kts 265°
2026-04-16 13:41 54.00156 -29.96164 35771 ft 458 kts 265°
2026-04-16 13:41 53.99636 -30.06969 35775 ft 458 kts 263°
2026-04-16 13:42 53.99001 -30.17761 35785 ft 457 kts 263°
2026-04-16 13:42 53.98356 -30.28544 35782 ft 459 kts 263°
2026-04-16 13:43 53.97708 -30.39357 35781 ft 458 kts 263°
2026-04-16 13:43 53.97055 -30.50155 35795 ft 459 kts 263°
2026-04-16 13:44 53.96399 -30.60874 35803 ft 459 kts 263°
2026-04-16 13:44 53.95726 -30.71693 35807 ft 459 kts 263°
2026-04-16 13:45 53.95044 -30.82485 35806 ft 459 kts 263°
2026-04-16 13:45 53.94353 -30.93277 35815 ft 458 kts 263°
2026-04-16 13:46 53.93772 -31.02234 35813 ft 460 kts 263°
2026-04-16 13:46 53.93066 -31.13005 35824 ft 458 kts 263°
2026-04-16 13:47 53.92348 -31.23767 35826 ft 459 kts 263°
2026-04-16 13:47 53.91622 -31.34532 35838 ft 458 kts 262°
2026-04-16 13:48 53.90883 -31.45304 35832 ft 458 kts 263°
2026-04-16 13:48 53.90137 -31.56049 35845 ft 459 kts 263°
2026-04-16 13:49 53.89382 -31.66820 35847 ft 458 kts 262°
2026-04-16 13:49 53.88623 -31.77484 35853 ft 459 kts 262°
2026-04-16 13:50 53.87849 -31.88226 35859 ft 458 kts 262°
2026-04-16 13:50 53.87064 -31.98972 35858 ft 459 kts 262°
2026-04-16 13:51 53.86267 -32.09709 35861 ft 458 kts 262°
2026-04-16 13:51 53.85466 -32.20438 35863 ft 458 kts 262°
2026-04-16 13:52 53.84653 -32.31166 35874 ft 459 kts 262°
2026-04-16 13:52 53.83832 -32.41874 35874 ft 457 kts 262°
2026-04-16 13:53 53.83000 -32.52592 35883 ft 458 kts 262°
2026-04-16 13:53 53.82156 -32.63298 35881 ft 458 kts 262°
2026-04-16 13:54 53.81307 -32.74002 35892 ft 458 kts 262°
2026-04-16 13:54 53.80455 -32.84611 35891 ft 458 kts 262°
2026-04-16 13:55 53.79585 -32.95311 35897 ft 458 kts 262°
2026-04-16 13:55 53.78708 -33.05986 35899 ft 458 kts 262°
2026-04-16 13:56 53.77818 -33.16671 35914 ft 457 kts 262°
2026-04-16 13:56 53.76921 -33.27334 35909 ft 457 kts 262°
2026-04-16 13:57 53.76016 -33.37991 35908 ft 457 kts 262°
2026-04-16 13:57 53.75108 -33.48565 35909 ft 457 kts 262°
2026-04-16 13:58 53.73718 -33.64530 35918 ft 457 kts 262°
2026-04-16 13:58 53.72779 -33.75172 35918 ft 457 kts 262°
2026-04-16 13:59 53.71831 -33.85803 35927 ft 457 kts 262°
2026-04-16 13:59 53.70872 -33.96447 35928 ft 457 kts 261°
2026-04-16 14:00 53.69906 -34.07068 35937 ft 457 kts 261°
2026-04-16 14:00 53.68930 -34.17678 35939 ft 457 kts 261°
2026-04-16 14:01 53.67943 -34.28283 35937 ft 456 kts 261°
2026-04-16 14:01 53.66958 -34.38785 35940 ft 455 kts 261°
2026-04-16 14:02 53.65961 -34.49327 35949 ft 455 kts 261°
2026-04-16 14:02 53.64952 -34.59884 35950 ft 455 kts 261°
2026-04-16 14:03 53.63934 -34.70429 35953 ft 455 kts 261°
2026-04-16 14:03 53.62905 -34.80971 35945 ft 454 kts 261°
2026-04-16 14:04 53.61871 -34.91464 35955 ft 453 kts 261°
2026-04-16 14:04 53.60831 -35.01953 35961 ft 453 kts 261°
2026-04-16 14:05 53.59787 -35.12369 35969 ft 453 kts 261°
2026-04-16 14:05 53.58729 -35.22829 35968 ft 453 kts 261°
2026-04-16 14:06 53.57659 -35.33309 35965 ft 453 kts 261°
2026-04-16 14:06 53.56584 -35.43731 35972 ft 451 kts 261°
2026-04-16 14:07 53.55501 -35.54150 35971 ft 451 kts 261°
2026-04-16 14:07 53.54411 -35.64551 35978 ft 451 kts 261°
2026-04-16 14:08 53.53313 -35.74944 35986 ft 450 kts 261°
2026-04-16 14:08 53.52206 -35.85314 35985 ft 450 kts 261°
2026-04-16 14:09 53.51098 -35.95586 35973 ft 447 kts 261°
2026-04-16 14:09 53.49982 -36.05873 35987 ft 447 kts 261°
2026-04-16 14:10 53.48859 -36.16145 35983 ft 446 kts 261°
2026-04-16 14:10 53.47727 -36.26402 35993 ft 446 kts 261°
2026-04-16 14:11 53.46584 -36.36670 35987 ft 446 kts 260°
2026-04-16 14:11 53.45433 -36.46918 35986 ft 445 kts 261°
2026-04-16 14:12 53.44276 -36.57146 36000 ft 445 kts 260°
2026-04-16 14:12 53.43116 -36.67332 35995 ft 444 kts 260°
2026-04-16 14:13 53.41942 -36.77544 35989 ft 444 kts 260°
2026-04-16 14:13 53.40763 -36.87726 35997 ft 444 kts 260°
2026-04-16 14:14 53.39572 -36.97916 35996 ft 444 kts 260°
2026-04-16 14:14 53.38377 -37.08060 36003 ft 443 kts 260°
2026-04-16 14:15 53.37184 -37.18131 36004 ft 443 kts 260°
2026-04-16 14:15 53.35974 -37.28259 36015 ft 443 kts 260°
2026-04-16 14:16 53.34754 -37.38384 36006 ft 443 kts 260°
2026-04-16 14:16 53.33526 -37.48504 36007 ft 443 kts 260°
2026-04-16 14:17 53.32297 -37.58539 36005 ft 441 kts 260°
2026-04-16 14:17 53.31059 -37.68597 36008 ft 440 kts 260°
2026-04-16 14:18 53.29814 -37.78637 36011 ft 440 kts 260°
2026-04-16 14:18 53.28560 -37.88674 36011 ft 440 kts 260°
2026-04-16 14:19 53.27298 -37.98697 36008 ft 440 kts 260°
2026-04-16 14:19 53.26027 -38.08710 36000 ft 438 kts 260°
2026-04-16 14:20 53.24756 -38.18657 36008 ft 436 kts 260°
2026-04-16 14:20 53.23482 -38.28571 36026 ft 436 kts 260°
2026-04-16 14:21 53.22207 -38.38415 36020 ft 436 kts 260°
2026-04-16 14:21 53.20915 -38.48326 36014 ft 436 kts 259°
2026-04-16 14:22 53.19614 -38.58226 36015 ft 436 kts 259°
2026-04-16 14:22 53.18307 -38.68098 36010 ft 434 kts 259°
2026-04-16 14:23 53.16999 -38.77922 36013 ft 433 kts 259°
2026-04-16 14:23 53.15684 -38.87734 36016 ft 433 kts 259°
2026-04-16 14:24 53.14358 -38.97558 36011 ft 433 kts 259°
2026-04-16 14:24 53.13036 -39.07296 36017 ft 433 kts 259°
2026-04-16 14:25 53.11695 -39.17098 36017 ft 433 kts 259°
2026-04-16 14:25 53.10348 -39.26878 36012 ft 433 kts 259°
2026-04-16 14:26 53.08992 -39.36667 36013 ft 433 kts 259°
2026-04-16 14:26 53.07636 -39.46387 36018 ft 433 kts 259°
2026-04-16 14:27 53.06262 -39.56173 36022 ft 433 kts 259°
2026-04-16 14:27 53.04882 -39.65936 35995 ft 433 kts 259°
2026-04-16 14:28 53.03499 -39.75651 36010 ft 430 kts 259°
2026-04-16 14:28 53.02114 -39.85336 36013 ft 430 kts 259°
2026-04-16 14:29 53.00720 -39.95008 36018 ft 430 kts 259°
2026-04-16 14:29 52.99305 -40.04665 36021 ft 430 kts 258°
2026-04-16 14:30 52.97846 -40.14308 36019 ft 430 kts 258°
2026-04-16 14:30 52.96389 -40.23871 36011 ft 428 kts 258°
2026-04-16 14:31 52.94922 -40.33463 36018 ft 428 kts 258°
2026-04-16 14:31 52.93451 -40.43023 36020 ft 428 kts 258°
2026-04-16 14:32 52.91972 -40.52589 36022 ft 428 kts 258°
2026-04-16 14:32 52.90485 -40.62145 36023 ft 428 kts 258°
2026-04-16 14:33 52.88990 -40.71696 36004 ft 427 kts 258°
2026-04-16 14:33 52.87502 -40.81149 36025 ft 425 kts 258°
2026-04-16 14:34 52.86000 -40.90640 36022 ft 425 kts 258°
2026-04-16 14:34 52.84492 -41.00110 36027 ft 425 kts 258°
2026-04-16 14:35 52.82976 -41.09581 36029 ft 425 kts 258°
2026-04-16 14:35 52.81451 -41.19053 36026 ft 425 kts 258°
2026-04-16 14:36 52.80178 -41.26916 36008 ft 425 kts 258°
2026-04-16 14:36 52.78639 -41.36374 36022 ft 425 kts 258°
2026-04-16 14:37 52.77094 -41.45823 36025 ft 425 kts 258°
2026-04-16 14:37 52.75541 -41.55260 36028 ft 425 kts 257°
2026-04-16 14:38 52.73980 -41.64697 36029 ft 425 kts 257°
2026-04-16 14:38 52.72421 -41.74074 36002 ft 425 kts 257°
2026-04-16 14:39 52.70841 -41.83516 36022 ft 426 kts 257°
2026-04-16 14:39 52.69255 -41.92948 36027 ft 426 kts 257°
2026-04-16 14:40 52.67662 -42.02366 36043 ft 426 kts 257°
2026-04-16 14:40 52.66065 -42.11763 36033 ft 425 kts 257°
2026-04-16 14:41 52.64460 -42.21156 36037 ft 425 kts 257°
2026-04-16 14:41 52.62845 -42.30540 36015 ft 425 kts 257°
2026-04-16 14:42 52.61227 -42.39913 36035 ft 425 kts 257°
2026-04-16 14:42 52.59600 -42.49287 36036 ft 425 kts 257°
2026-04-16 14:43 52.57968 -42.58642 36042 ft 425 kts 257°
2026-04-16 14:43 52.56333 -42.67961 36042 ft 425 kts 257°
2026-04-16 14:44 52.54681 -42.77323 36010 ft 425 kts 257°
2026-04-16 14:44 52.53018 -42.86688 36033 ft 427 kts 257°
2026-04-16 14:45 52.51358 -42.96011 36052 ft 427 kts 257°
2026-04-16 14:45 52.49668 -43.05445 36039 ft 427 kts 257°
2026-04-16 14:46 52.47993 -43.14750 36046 ft 427 kts 257°
2026-04-16 14:46 52.46298 -43.24111 36058 ft 427 kts 257°
2026-04-16 14:47 52.44592 -43.33468 36038 ft 428 kts 257°
2026-04-16 14:47 52.42881 -43.42831 36048 ft 428 kts 257°
2026-04-16 14:48 52.41161 -43.52196 36048 ft 428 kts 257°
2026-04-16 14:48 52.39433 -43.61552 36059 ft 428 kts 257°
2026-04-16 14:49 52.37709 -43.70834 36052 ft 428 kts 257°
2026-04-16 14:49 52.35966 -43.80168 36032 ft 429 kts 257°
2026-04-16 14:50 52.34213 -43.89512 36051 ft 429 kts 257°
2026-04-16 14:50 52.32452 -43.98861 36059 ft 429 kts 257°
2026-04-16 14:51 52.30684 -44.08196 36054 ft 429 kts 257°
2026-04-16 14:51 52.28908 -44.17529 36051 ft 429 kts 257°
2026-04-16 14:53 52.21745 -44.54695 36062 ft 428 kts 257°
2026-04-16 14:54 52.19935 -44.63974 36061 ft 429 kts 257°
2026-04-16 14:54 52.18115 -44.73259 36061 ft 429 kts 257°
2026-04-16 14:55 52.16288 -44.82521 36051 ft 428 kts 257°
2026-04-16 14:55 52.14471 -44.91707 36061 ft 428 kts 257°
2026-04-16 14:56 52.12634 -45.00952 36069 ft 428 kts 257°
2026-04-16 14:56 52.10789 -45.10187 36064 ft 428 kts 257°
2026-04-16 14:57 52.08937 -45.19411 36072 ft 428 kts 257°
2026-04-16 14:57 52.07079 -45.28625 36054 ft 428 kts 257°
2026-04-16 14:58 52.04286 -45.42393 36070 ft 428 kts 257°
2026-04-16 14:59 52.02412 -45.51575 36069 ft 428 kts 257°
2026-04-16 14:59 52.00528 -45.60769 36074 ft 427 kts 257°
2026-04-16 15:00 51.98641 -45.69927 36071 ft 427 kts 257°
2026-04-16 15:00 51.96759 -45.79020 36066 ft 426 kts 257°
2026-04-16 15:01 51.94862 -45.88151 36079 ft 426 kts 257°
2026-04-16 15:01 51.92960 -45.97260 36084 ft 426 kts 256°
2026-04-16 15:02 51.91046 -46.06385 36071 ft 426 kts 256°
2026-04-16 15:02 51.89129 -46.15486 36078 ft 426 kts 256°
2026-04-16 15:03 51.87204 -46.24577 36038 ft 426 kts 256°
2026-04-16 15:03 51.85272 -46.33661 36069 ft 426 kts 256°
2026-04-16 15:04 51.83330 -46.42757 36071 ft 426 kts 256°
2026-04-16 15:04 51.81387 -46.51820 36074 ft 426 kts 256°
2026-04-16 15:05 51.79432 -46.60893 36077 ft 427 kts 256°
2026-04-16 15:05 51.77480 -46.69913 36075 ft 427 kts 256°
2026-04-16 15:06 51.75511 -46.78966 36066 ft 426 kts 256°
2026-04-16 15:06 51.73538 -46.88003 36071 ft 426 kts 256°
2026-04-16 15:07 51.71557 -46.97040 36069 ft 426 kts 256°
2026-04-16 15:07 51.69570 -47.06062 36069 ft 426 kts 256°
2026-04-16 15:08 51.67576 -47.15074 36078 ft 426 kts 256°
2026-04-16 15:08 51.65583 -47.24042 36061 ft 426 kts 256°
2026-04-16 15:09 51.63575 -47.33043 36074 ft 426 kts 256°
2026-04-16 15:09 51.61561 -47.42031 36076 ft 426 kts 256°
2026-04-16 15:10 51.59541 -47.51006 36083 ft 426 kts 256°
2026-04-16 15:10 51.57528 -47.59913 36084 ft 426 kts 256°
2026-04-16 15:11 51.55491 -47.68889 36062 ft 426 kts 256°
2026-04-16 15:11 51.53453 -47.77828 36079 ft 426 kts 255°
2026-04-16 15:12 51.51407 -47.86768 36084 ft 425 kts 255°
2026-04-16 15:12 51.49356 -47.95686 36083 ft 424 kts 255°
2026-04-16 15:13 51.47321 -48.04505 36085 ft 424 kts 255°
2026-04-16 15:13 51.45260 -48.13397 36050 ft 424 kts 255°
2026-04-16 15:14 51.43193 -48.22279 36081 ft 424 kts 255°
2026-04-16 15:14 51.41119 -48.31151 36087 ft 424 kts 255°
2026-04-16 15:15 51.39038 -48.40020 36083 ft 424 kts 255°
2026-04-16 15:15 51.36954 -48.48862 36088 ft 424 kts 255°
2026-04-16 15:16 51.34874 -48.57652 36090 ft 424 kts 255°
2026-04-16 15:16 51.32772 -48.66504 36073 ft 425 kts 255°
2026-04-16 15:17 51.30661 -48.75352 36089 ft 425 kts 255°
2026-04-16 15:17 51.28541 -48.84198 36081 ft 425 kts 255°
2026-04-16 15:18 51.26417 -48.93028 36080 ft 425 kts 255°
2026-04-16 15:18 51.24289 -49.01839 36096 ft 425 kts 254°
2026-04-16 15:19 51.22158 -49.10626 36090 ft 424 kts 254°
2026-04-16 15:19 51.20036 -49.19343 36092 ft 424 kts 254°
2026-04-16 15:20 51.17893 -49.28115 36084 ft 424 kts 254°
2026-04-16 15:20 51.15744 -49.36871 36088 ft 424 kts 254°
2026-04-16 15:21 51.13588 -49.45625 36087 ft 424 kts 254°
2026-04-16 15:21 51.11422 -49.54381 36061 ft 424 kts 254°
2026-04-16 15:22 51.09249 -49.63138 36080 ft 425 kts 254°
2026-04-16 15:22 51.07064 -49.71897 36087 ft 425 kts 254°
2026-04-16 15:23 51.04886 -49.80599 36085 ft 425 kts 253°
2026-04-16 15:23 51.02692 -49.89331 36093 ft 425 kts 253°
2026-04-16 15:24 51.00487 -49.98064 36067 ft 425 kts 253°
2026-04-16 15:24 50.98344 -50.06823 36090 ft 425 kts 255°
2026-04-16 15:25 50.96247 -50.15607 36093 ft 424 kts 254°
2026-04-16 15:25 50.94500 -50.22883 36091 ft 424 kts 254°
2026-04-16 15:26 50.92389 -50.31622 36083 ft 424 kts 254°
2026-04-16 15:26 50.89921 -50.41791 36090 ft 424 kts 254°
2026-04-16 15:27 50.88137 -50.49116 36077 ft 425 kts 254°
2026-04-16 15:27 50.85995 -50.57868 36083 ft 426 kts 254°
2026-04-16 15:28 50.83858 -50.66560 36088 ft 426 kts 253°
2026-04-16 15:28 50.81700 -50.75306 36088 ft 426 kts 253°
2026-04-16 15:29 50.79536 -50.84042 36091 ft 426 kts 253°
2026-04-16 15:29 50.77368 -50.92764 36060 ft 427 kts 253°
2026-04-16 15:30 50.75187 -51.01504 36084 ft 427 kts 253°
2026-04-16 15:30 50.72995 -51.10244 36088 ft 427 kts 253°
2026-04-16 15:31 50.70813 -51.18919 36093 ft 426 kts 253°
2026-04-16 15:31 50.68614 -51.27624 36090 ft 426 kts 253°
2026-04-16 15:32 50.66407 -51.36325 36049 ft 426 kts 253°
2026-04-16 15:32 50.64192 -51.45036 36077 ft 428 kts 252°
2026-04-16 15:33 50.61967 -51.53740 36087 ft 428 kts 252°
2026-04-16 15:33 50.59734 -51.62441 36088 ft 428 kts 252°
2026-04-16 15:34 50.57494 -51.71139 36088 ft 428 kts 252°
2026-04-16 15:34 50.55249 -51.79824 36083 ft 428 kts 252°
2026-04-16 15:35 50.53008 -51.88461 36079 ft 429 kts 252°
2026-04-16 15:35 50.50724 -51.97147 36084 ft 430 kts 251°
2026-04-16 15:36 50.50311 -51.98592 36087 ft 430 kts 250°